This demonstration page uses our WeatherBlox Daily Observations layout. Learn more.

Left ArrowRight Arrow

Hourly Observations for April 20, 2016

Temp ( °F °C ) Dew Point ( °F °C ) Humidity (%) Winds ( mph kmh ) Pressure ( in mb ) Visibility ( mi km ) Precip ( " mm )
12:53 am 00:53 Clear 64 17.8 52 11.1 65 65 Calm 29.84 1011 10 16 0.00 0.00
1:53 am 01:53 Clear 62 16.7 51 10.6 67 67 NNW 3 6 29.84 1011 10 16 0.00 0.00
2:53 am 02:53 Clear 61 16.1 52 11.1 72 72 Calm 29.84 1011 10 16 0.00 0.00
3:53 am 03:53 Clear 59 15 51 10.6 75 75 Calm 29.85 1011 10 16 0.00 0.00
4:53 am 04:53 Clear 58 14.4 51 10.6 78 78 Calm 29.86 1011 10 16 0.00 0.00
5:53 am 05:53 Clear 56 13.3 51 10.6 84 84 Calm 29.87 1012 10 16 0.00 0.00
6:53 am 06:53 Sunny 57 13.9 51 10.6 81 81 Calm 29.88 1012 10 16 0.00 0.00
7:53 am 07:53 Sunny 60 15.6 51 10.6 72 72 Calm 29.90 1012 10 16 0.00 0.00
8:53 am 08:53 Sunny 62 16.7 52 11.1 70 70 Calm 29.91 1013 10 16 0.00 0.00
9:53 am 09:53 Sunny 67 19.4 51 10.6 57 57 S 6 9 29.91 1013 10 16 0.00 0.00
10:53 am 10:53 Sunny 71 21.7 48 8.9 44 44 VRB 5 7 29.91 1013 10 16 0.00 0.00
11:53 am 11:53 Sunny 74 23.3 45 7.2 36 36 S 8 13 29.90 1013 10 16 0.00 0.00
12:53 pm 12:53 Sunny 77 25 33 0.6 20 20 VRB 7 11 29.89 1012 10 16 0.00 0.00
1:53 pm 13:53 Sunny 79 26.1 30 -1.1 17 17 SSE 9 15 29.88 1012 10 16 0.00 0.00
2:53 pm 14:53 Sunny 81 27.2 32 0 17 17 SE 9 15 29.86 1011 10 16 0.00 0.00
3:53 pm 15:53 Sunny 82 27.8 31 -0.6 16 16 S 15 24 29.85 1011 10 16 0.00 0.00
4:53 pm 16:53 Sunny 81 27.2 28 -2.2 14 14 S 15 24 29.83 1010 10 16 0.00 0.00
5:53 pm 17:53 Sunny 80 26.7 28 -2.2 15 15 S 15 24 29.82 1010 10 16 0.00 0.00
6:53 pm 18:53 Sunny 78 25.6 31 -0.6 18 18 S 13 20 29.82 1010 10 16 0.00 0.00
7:53 pm 19:53 Sunny 74 23.3 31 -0.6 20 20 S 10 17 29.81 1010 10 16 0.00 0.00
8:53 pm 20:53 Clear 71 21.7 32 0 24 24 S 7 11 29.83 1010 10 16 0.00 0.00
9:53 pm 21:53 Clear 67 19.4 34 1.1 30 30 SE 6 9 29.85 1011 10 16 0.00 0.00
10:53 pm 22:53 Clear 65 18.3 36 2.2 34 34 N 5 7 29.85 1011 10 16 0.00 0.00
11:53 pm 23:53 Clear 61 16.1 38 3.3 43 43 Calm 29.85 1011 10 16 0.00 0.00

Powered by AerisWeather